Weather observations for the past three days for
Jamestown, Jamestown Municipal Airport
| Date | Time (cdt) | Wind (kph) | Vis. (km) | Weather | Sky Cond. | Temperature (ºC) | Relative Humidity | Wind Chill (°C) | Heat Index (°C) | Pressure | Precipitation (cm) | ||||||
|---|---|---|---|---|---|---|---|---|---|---|---|---|---|---|---|---|---|
| Air | Dwpt | 6 hour | altimeter (cm) | sea level (mb) | 1 hr | 3 hr | 6 hr | ||||||||||
| Max. | Min. | ||||||||||||||||
| 07 | 01:56 | S 6 | 16.09 | Fair | CLR | -3.3 | -7.8 | 71% | 75.87 | 1013.1 | |||||||
| 07 | 00:56 | S 7 | 16.09 | Fair | CLR | -0.6 | -7.2 | 7.8 | -1.1 | 61% | -3 | 75.87 | 1013.1 | ||||
| 06 | 23:56 | S 9 | 16.09 | Fair | CLR | 0 | -6.7 | 61% | -3 | 75.9 | 1013.3 | ||||||
| 06 | 22:56 | SE 7 | 16.09 | Fair | CLR | 1.7 | -6.7 | 54% | -0 | 75.95 | 1013.9 | ||||||
| 06 | 21:56 | S 6 | 16.09 | A Few Clouds | FEW100 | 4.4 | -7.8 | 41% | 75.95 | 1014.0 | |||||||
| 06 | 20:56 | Calm | 16.09 | Overcast | OVC100 | 5.6 | -6.7 | 41% | 75.97 | 1014.1 | |||||||
| 06 | 19:56 | Calm | 16.09 | Overcast | OVC085 | 7.8 | -7.8 | 33% | 75.97 | 1014.3 | |||||||
| 06 | 18:56 | N 13 | 16.09 | Overcast | OVC070 | 8.3 | -7.8 | 8.9 | 4.4 | 31% | 6 | 76 | 1014.7 | ||||
| 06 | 17:56 | NW 17 | 16.09 | Mostly Cloudy | BKN070 | 7.8 | -7.8 | 33% | 5 | 76.02 | 1015.0 | ||||||
| 06 | 16:56 | N 11 | 16.09 | Mostly Cloudy | BKN065 | 8.3 | -6.7 | 34% | 7 | 76.07 | 1015.6 | ||||||
| 06 | 15:56 | NW 15 G 30 | 16.09 | Overcast | OVC060 | 7.2 | -6.7 | 37% | 5 | 76.15 | 1016.4 | ||||||
| 06 | 14:56 | Vrbl 9 | 16.09 | Overcast | OVC060 | 6.7 | -6.7 | 38% | 5 | 76.17 | 1017.0 | ||||||
| 06 | 13:56 | NW 19 G 28 | 16.09 | Overcast | OVC055 | 5.6 | -6.7 | 41% | 2 | 76.23 | 1017.7 | ||||||
| 06 | 12:56 | Vrbl 7 | 16.09 | Overcast | OVC049 | 5 | -6.1 | 5 | 0.6 | 45% | 4 | 76.25 | 1018.2 | ||||
| 06 | 11:56 | W 13 | 16.09 | Overcast | OVC046 | 3.9 | -6.7 | 46% | 1 | 76.3 | 1018.6 | ||||||
| 06 | 10:56 | NW 17 | 16.09 | Overcast | OVC041 | 2.8 | -6.7 | 50% | -1 | 76.33 | 1019.1 | ||||||
| 06 | 09:56 | NW 19 | 16.09 | Overcast | OVC044 | 2.2 | -6.7 | 52% | -2 | 76.33 | 1019.1 | ||||||
| 06 | 08:56 | NW 15 | 16.09 | Overcast | OVC041 | 1.7 | -6.1 | 57% | -2 | 76.33 | 1019.2 | ||||||
| 06 | 07:56 | NW 17 | 16.09 | Overcast | OVC039 | 1.1 | -6.1 | 59% | -3 | 76.3 | 1019.0 | ||||||
| 06 | 06:56 | NW 15 | 16.09 | Overcast | OVC040 | 0.6 | -6.7 | 1.1 | 0 | 58% | -3 | 76.28 | 1018.4 | ||||
| 06 | 05:56 | NW 13 | 16.09 | Overcast | OVC041 | 0.6 | -5.6 | 64% | -3 | 76.25 | 1018.1 | ||||||
| 06 | 04:56 | NW 13 | 16.09 | Overcast | OVC042 | 0.6 | -5.6 | 64% | -3 | 76.25 | 1018.0 | ||||||
| 06 | 03:56 | NW 13 | 16.09 | Overcast | OVC044 | 0.6 | -5.6 | 64% | -3 | 76.23 | 1017.8 | ||||||
| 06 | 02:56 | NW 6 | 16.09 | Overcast | OVC044 | 0.6 | -5 | 66% | 76.23 | 1017.6 | |||||||
| 06 | 01:56 | N 9 | 16.09 | Overcast | OVC045 | 0.6 | -5 | 66% | -2 | 76.23 | 1017.7 | ||||||
| 06 | 00:56 | N 13 | 16.09 | Overcast | OVC046 | 1.1 | -5.6 | 3.9 | 1.1 | 61% | -2 | 76.23 | 1017.6 | ||||
| 05 | 23:56 | NW 17 | 16.09 | Overcast | OVC047 | 1.7 | -5.6 | 59% | -2 | 76.2 | 1017.3 | ||||||
| 05 | 22:56 | NW 19 | 16.09 | Overcast | OVC050 | 1.7 | -5.6 | 59% | -2 | 76.2 | 1017.4 | ||||||
| 05 | 21:56 | NW 13 | 16.09 | Overcast | OVC055 | 2.2 | -5.6 | 57% | -1 | 76.17 | 1016.9 | ||||||
| 05 | 20:56 | NW 22 | 16.09 | Overcast | OVC048 | 2.8 | -6.1 | 52% | -2 | 76.12 | 1016.3 | ||||||
| 05 | 19:56 | N 22 | 16.09 | Overcast | OVC050 | 3.3 | -6.7 | 48% | -1 | 76.1 | 1015.9 | ||||||
| 05 | 18:56 | NW 24 | 16.09 | Overcast | OVC050 | 3.9 | -6.7 | 5.6 | 3.9 | 46% | -0 | 76.07 | 1015.8 | ||||
| 05 | 17:56 | N 24 G 39 | 16.09 | Overcast | OVC049 | 3.9 | -6.7 | 46% | -0 | 76.07 | 1015.7 | ||||||
| 05 | 16:56 | NW 26 G 39 | 16.09 | Overcast | OVC050 | 4.4 | -6.7 | 45% | 0 | 76.05 | 1015.4 | ||||||
| 05 | 15:56 | NW 30 | 16.09 | Overcast | OVC050 | 5 | -6.7 | 43% | 0 | 76.02 | 1015.1 | ||||||
| 05 | 14:56 | NW 26 | 16.09 | Overcast | OVC050 | 5 | -7.2 | 41% | 1 | 76.02 | 1015.1 | ||||||
| 05 | 13:56 | NW 30 | 16.09 | Overcast | OVC055 | 5 | -7.8 | 39% | 0 | 76 | 1014.6 | ||||||
| 05 | 12:56 | NW 31 G 46 | 16.09 | Overcast | OVC055 | 5.6 | -7.2 | 5.6 | 1.1 | 40% | 1 | 75.97 | 1014.0 | ||||
| 05 | 11:56 | N 28 G 43 | 16.09 | Overcast | OVC049 | 4.4 | -6.1 | 47% | -0 | 75.97 | 1014.2 | ||||||
| 05 | 10:56 | N 22 G 41 | 16.09 | Overcast | BKN046 OVC055 | 3.9 | -6.1 | 48% | -0 | 75.95 | 1013.8 | ||||||
| 05 | 09:56 | NW 26 | 16.09 | A Few Clouds | FEW036 | 4.4 | -4.4 | 53% | 0 | 75.92 | 1013.5 | ||||||
| 05 | 08:56 | NW 31 | 16.09 | Fair | CLR | 3.9 | -6.1 | 48% | -1 | 75.87 | 1012.7 | ||||||
| 05 | 07:56 | NW 30 | 16.09 | Fair | CLR | 2.8 | -5 | 57% | -2 | 75.84 | 1012.2 | ||||||
| 05 | 06:56 | NW 26 | 16.09 | Partly Cloudy | SCT110 | 1.1 | -4.4 | 3.9 | -0.6 | 67% | -4 | 75.77 | 1011.5 | ||||
| 05 | 05:56 | NW 22 | 16.09 | Overcast | FEW080 OVC100 | 1.1 | -3.3 | 73% | -4 | 75.74 | 1011.1 | ||||||
| 05 | 04:56 | W 15 | 16.09 | Partly Cloudy | SCT075 | 0 | -3.9 | 75% | -4 | 75.77 | 1011.3 | ||||||
| 05 | 03:56 | NW 13 | 16.09 | Fair | CLR | 0 | -5.6 | 66% | -4 | 75.74 | 1011.1 | ||||||
| 05 | 02:56 | NW 11 | 16.09 | Partly Cloudy | SCT080 | 0.6 | -5.6 | 64% | -2 | 75.72 | 1010.9 | ||||||
| 05 | 01:56 | N 15 | 16.09 | Overcast | OVC080 | 2.2 | -5 | 59% | -1 | 75.72 | 1010.8 | ||||||
| 05 | 00:56 | NW 22 | 16.09 | Overcast | SCT060 OVC080 | 3.9 | -4.4 | 7.8 | 3.9 | 55% | -0 | 75.69 | 1010.4 | ||||
| 04 | 23:56 | NW 20 | 16.09 | Overcast | SCT060 OVC080 | 4.4 | -5 | 51% | 1 | 75.69 | 1010.1 | ||||||
| 04 | 22:56 | NW 19 | 16.09 | Overcast | OVC080 | 5 | -5 | 49% | 2 | 75.67 | 1010.0 | ||||||
| 04 | 21:56 | N 20 | 16.09 | Overcast | OVC080 | 5.6 | -5 | 47% | 2 | 75.64 | 1009.6 | ||||||
| 04 | 20:56 | NW 22 G 35 | 16.09 | Overcast | FEW065 OVC085 | 6.1 | -6.1 | 42% | 3 | 75.57 | 1008.5 | ||||||
| 04 | 19:56 | NW 26 G 46 | 16.09 | Overcast | FEW065 OVC085 | 7.2 | -6.7 | 37% | 4 | 75.54 | 1008.1 | ||||||
| 04 | 18:56 | NW 33 | 16.09 | Overcast and Breezy | OVC080 | 7.8 | -6.1 | 9.4 | 6.7 | 37% | 4 | 75.51 | 1007.8 | ||||
| 04 | 17:56 | NW 41 G 56 | 16.09 | Overcast and Breezy | OVC070 | 9.4 | -4.4 | 38% | 5 | 75.49 | 1007.3 | ||||||
| 04 | 16:56 | NW 33 G 48 | 16.09 | Overcast and Breezy | FEW049 OVC070 | 8.9 | -2.8 | 44% | 5 | 75.46 | 1006.8 | ||||||
| 04 | 15:56 | NW 44 G 57 | 16.09 | Overcast and Windy | BKN060 OVC075 | 7.8 | -3.3 | 46% | 3 | 75.46 | 1006.8 | ||||||
| 04 | 14:56 | NW 39 G 57 | 16.09 | Overcast and Breezy | OVC065 | 8.3 | -3.3 | 44% | 4 | 75.46 | 1006.7 | ||||||
| 04 | 13:56 | NW 33 G 57 | 16.09 | Overcast and Breezy | FEW047 OVC060 | 7.2 | -2.8 | 49% | 3 | 75.46 | 1006.7 | ||||||
| 04 | 12:56 | NW 39 G 56 | 16.09 | Overcast and Breezy | BKN050 OVC060 | 7.2 | -5 | 8.3 | 3.9 | 42% | 3 | 75.44 | 1006.4 | ||||
| 04 | 11:56 | NW 46 G 69 | 16.09 | Mostly Cloudy and Windy | BKN050 | 7.8 | -5.6 | 38% | 3 | 75.41 | 1005.7 | ||||||
| 04 | 10:56 | NW 43 G 65 | 16.09 | Mostly Cloudy and Windy | BKN047 | 7.2 | -4.4 | 44% | 2 | 75.36 | 1005.1 | ||||||
| 04 | 09:56 | NW 43 G 63 | 16.09 | Overcast and Windy | OVC039 | 5.6 | -3.3 | 53% | 0 | 75.36 | 1004.9 | ||||||
| 04 | 08:56 | NW 44 G 63 | 16.09 | Partly Cloudy and Windy | SCT029 | 6.1 | -2.2 | 56% | 1 | 75.31 | 1004.2 | ||||||
| 04 | 07:56 | NW 43 G 56 | 16.09 | Fair and Windy | CLR | 4.4 | -1.7 | 65% | -1 | 75.23 | 1003.2 | ||||||
| 04 | 06:56 | NW 33 G 44 | 16.09 | Fair and Breezy | CLR | 3.9 | -1.1 | 10 | 3.9 | 70% | -1 | 75.16 | 1002.3 | ||||
| 04 | 05:56 | NW 37 G 54 | 16.09 | Fair and Breezy | CLR | 5 | -1.1 | 65% | -0 | 75.11 | 1001.4 | ||||||
| 04 | 04:56 | NW 31 G 44 | 16.09 | A Few Clouds | FEW110 | 8.3 | 1.7 | 63% | 5 | 75.01 | 999.8 | ||||||
| 04 | 03:56 | W 17 | 16.09 | Overcast | OVC095 | 8.9 | 2.8 | 66% | 7 | 74.93 | 998.7 | ||||||
| 04 | 02:56 | W 13 | 16.09 | Fair | CLR | 7.8 | 3.3 | 73% | 6 | 74.9 | 998.5 | ||||||
| Date | Time (cdt) | Wind (kph) | Vis. (km) | Weather | Sky Cond. | Air | Dwpt | Max. | Min. | Relative Humidity | Wind Chill (°C) | Heat Index (°C) | altimeter (cm) | sea level (mb) | 1 hr | 3 hr | 6 hr |
| 6 hour | |||||||||||||||||
| Temperature (ºC) | Pressure | Precipitation (cm) | |||||||||||||||